{"data":{"norad_id":67969,"epoch":"2026-09-19T07:56:58.684992Z","epoch_age_seconds":160526,"freshness":"FRESH","line1":"1 67969U 26038J   26262.33123478  .00012246  00000+0  38096-3 0  9998","line2":"2 67969  97.2844 270.6778 0002105 102.6652 257.4827 15.33449424 32919","mean_motion":15.33449424,"eccentricity":0.0002105,"inclination_deg":97.2844,"raan_deg":270.6778,"arg_perigee_deg":102.6652,"mean_anomaly_deg":257.4827,"bstar":0.00038096,"rev_number":3291,"period_min":93.905933737532,"perigee_km":464.08941989234,"apogee_km":466.97060370431,"semimajor_km":6843.6670117983,"source":"CELESTRAK","updated_at":"2026-09-20T09:00:43.730672Z"}}